[[{"header":{"parameterUnit":"m.s-1","parameterCategory":1,"la1":30.2991,"la2":30.254,"lo1":-89.0895,"lo2":-89.0444,"dy":0.0017,"dx":0.0017,"nx":28,"ny":28,"refTime":"2024-09-29T09:00:00:Z","depth":0,"parameterNumber":2,"parameterNumberName":"U-component_of_WINDS"},"data":[0,0,0,0,0,0,0,0,0,0,0,0,0,0,0,0,0,0,0,0,0,0,0,0,0,0,0,0,0,0,0,0,0,0,0,0,0,0,0,0,0,0,0,0,0,0,0,0,0,0,0,0,0,0,0,0,0,0,-0.8835,-0.8835,0,-0.8803,-0.8803,-0.8802,-0.8797,-0.8798,-0.8798,-0.8798,-0.8762,-0.8761,-0.876,0,0,0,0,0,0,0,0,0,0,0,0,0,-0.889,-0.8889,-0.8835,-0.8835,-0.8835,-0.8803,-0.8803,-0.8802,-0.8797,-0.8798,-0.8798,-0.8799,-0.8762,-0.8761,-0.8759,0,0,0,0,0,0,0,0,0,0,0,0,0,-0.8863,-0.8889,-0.8835,-0.8829,-0.8828,-0.8803,-0.8803,-0.8802,-0.8797,-0.8798,-0.8798,-0.8799,-0.8763,-0.8761,-0.8759,-0.8738,0,0,-0.8754,-0.8753,0,0,0,0,0,0,0,0,-0.8865,-0.8861,-0.883,-0.8829,-0.8828,-0.8805,-0.8809,-0.8781,-0.8797,-0.8809,-0.8798,-0.8799,-0.8776,-0.8773,-0.8766,-0.8737,-0.8735,-0.8753,-0.8752,-0.8751,-0.8751,0,0,0,0,0,0,0,-0.8866,-0.8862,-0.8822,-0.883,-0.8828,-0.8826,-0.8823,-0.8803,-0.879,-0.8808,-0.8807,-0.8804,-0.8775,-0.8767,-0.8765,-0.8735,-0.8753,-0.8752,-0.8751,-0.875,-0.8686,-0.8685,0,0,0,0,0,0,-0.887,-0.8864,-0.8823,-0.8821,-0.8848,-0.8825,-0.8821,-0.8812,-0.879,-0.8787,-0.8803,-0.8804,-0.877,-0.8767,-0.8763,-0.8736,-0.8751,-0.875,-0.8749,-0.8686,-0.8686,-0.8685,0,0,0,0,0,0,-0.8871,-0.8867,-0.8825,-0.8843,-0.8837,-0.8823,-0.8813,-0.8811,-0.8803,-0.8787,-0.8784,-0.8798,-0.8771,-0.8766,-0.8745,-0.8735,-0.8749,-0.8747,-0.8687,-0.8686,-0.8685,-0.8683,0,0,0,0,0,0,-0.8873,-0.8867,-0.886,-0.8843,-0.8836,-0.8807,-0.8812,-0.881,-0.88,-0.88,-0.8781,-0.8778,-0.8771,-0.8747,-0.8743,-0.8733,-0.8746,-0.8688,-0.8687,-0.8686,-0.8684,-0.8682,-0.8681,0,0,0,0,0,-0.8875,-0.886,-0.8859,-0.8854,-0.8827,-0.8807,-0.8803,-0.8795,-0.88,-0.8791,-0.8781,-0.8779,-0.8737,-0.8745,-0.874,-0.8729,-0.8688,-0.8687,-0.8686,-0.8685,-0.8683,-0.8681,0,0,0,0,0,0,-0.8875,-0.8857,-0.8857,-0.8836,-0.8823,-0.8806,-0.8796,-0.8794,-0.8779,-0.8779,-0.8769,-0.8765,-0.8744,-0.8735,-0.8744,-0.8707,-0.8713,-0.8711,-0.8714,-0.8712,-0.8711,-0.8712,-0.8744,0,0,0,0,0,-0.8873,-0.8859,-0.8844,-0.8827,-0.8821,-0.881,-0.8801,-0.8796,-0.8782,-0.8776,-0.8764,-0.8749,-0.8733,-0.8722,-0.8706,-0.8683,-0.8678,-0.8673,-0.8672,-0.8671,-0.8668,-0.8654,-0.8651,-0.8681,-0.8681,-0.8681,0,0,-0.8868,-0.8856,-0.8848,-0.8827,-0.8816,-0.8801,-0.8805,-0.8789,-0.8777,-0.8773,-0.8752,-0.8743,-0.8726,-0.8703,-0.8693,-0.8695,-0.8659,-0.8669,-0.8668,-0.8666,-0.8652,-0.8649,-0.8647,-0.868,-0.868,-0.868,0,0,-0.885,-0.8841,-0.8825,-0.8815,-0.88,-0.8792,-0.8789,-0.8772,-0.8766,-0.8745,-0.8742,-0.8727,-0.8699,-0.8687,-0.8677,-0.8656,-0.8653,-0.8651,-0.8642,-0.8628,-0.8626,-0.8624,-0.8614,-0.8611,-0.8649,-0.8649,-0.8649,0,-0.8845,-0.8823,-0.8817,-0.8801,-0.8792,-0.8789,-0.8772,-0.8762,-0.8742,-0.8734,-0.8738,-0.8702,-0.8691,-0.8665,-0.866,-0.8652,-0.8646,-0.8652,-0.8627,-0.8625,-0.8623,-0.8613,-0.861,-0.8648,-0.8648,-0.8649,-0.8649,0,-0.8818,-0.8802,-0.8791,-0.8773,-0.8762,-0.8746,-0.8736,-0.8726,-0.8722,-0.8714,-0.8692,-0.8679,-0.8659,-0.8653,-0.8649,-0.8626,-0.8628,-0.8629,-0.8634,-0.862,-0.8611,-0.8607,-0.8648,-0.8648,-0.8648,-0.8648,0,0,-0.8798,-0.8777,-0.8773,-0.8764,-0.8747,-0.8734,-0.8718,-0.87,-0.869,-0.8677,-0.8661,-0.8638,-0.8639,-0.8628,-0.8623,-0.8611,-0.8593,-0.8614,-0.8613,-0.8609,-0.8565,-0.8563,-0.8559,-0.8592,-0.8591,-0.8591,-0.8566,0,-0.8777,-0.8748,-0.8743,-0.8717,-0.8702,-0.8699,-0.8685,-0.8672,-0.8664,-0.8649,-0.864,-0.8623,-0.8627,-0.862,-0.8609,-0.8598,-0.8584,-0.86,-0.8576,-0.8575,-0.8578,-0.8554,-0.8552,-0.8529,-0.8562,-0.8562,-0.8561,0,-0.8749,-0.8735,-0.8709,-0.8693,-0.8687,-0.8674,-0.8656,-0.8643,-0.8628,-0.8623,-0.8611,-0.8607,-0.8588,-0.8596,-0.8569,-0.858,-0.857,-0.8563,-0.8562,-0.8558,-0.8566,-0.8548,-0.8522,-0.8517,-0.8556,-0.8557,-0.8557,0,-0.8735,-0.8711,-0.8691,-0.8684,-0.8666,-0.8656,-0.8648,-0.8634,-0.8623,-0.8608,-0.8601,-0.8584,-0.8574,-0.856,-0.8551,-0.8557,-0.8524,-0.8531,-0.8518,-0.8518,-0.8509,-0.8509,-0.8479,-0.8506,-0.8506,-0.8506,-0.8506,0,-0.8712,-0.8695,-0.8685,-0.8672,-0.8653,-0.8647,-0.8627,-0.8619,-0.8607,-0.8592,-0.8589,-0.8574,-0.8564,-0.8548,-0.8541,-0.8519,-0.8515,-0.8509,-0.8507,-0.8508,-0.8509,-0.85,-0.8501,-0.8505,-0.8505,-0.8506,-0.8506,0,-0.8693,-0.8685,-0.8663,-0.8649,-0.8644,-0.8631,-0.8617,-0.8604,-0.8597,-0.8578,-0.8573,-0.8561,-0.8542,-0.8532,-0.8509,-0.8504,-0.8478,-0.8478,-0.8483,-0.8482,-0.8469,-0.8469,-0.843,-0.8424,-0.8457,-0.8456,-0.8456,0,-0.8677,-0.8664,-0.8648,-0.8639,-0.8631,-0.8615,-0.8605,-0.8598,-0.8587,-0.8569,-0.8558,-0.8539,-0.8524,-0.8493,-0.8481,-0.8463,-0.8461,-0.8448,-0.8458,-0.8459,-0.8458,-0.8458,-0.8456,-0.8446,-0.8446,-0.8445,-0.8445,0,-0.865,-0.8647,-0.8633,-0.8617,-0.8605,-0.8592,-0.8579,-0.8571,-0.8561,-0.8549,-0.853,-0.8518,-0.8494,-0.8475,-0.8456,-0.8446,-0.8443,-0.8443,-0.8438,-0.8438,-0.8441,-0.8438,-0.8477,-0.8443,-0.8443,-0.8443,-0.8444,-0.8444,-0.8631,-0.8619,-0.8606,-0.8589,-0.8579,-0.8567,-0.8554,-0.8546,-0.853,-0.8511,-0.8508,-0.8487,-0.8472,-0.8446,-0.8436,-0.8419,-0.8421,-0.8415,-0.8413,-0.8411,-0.841,-0.8446,-0.8415,-0.8415,-0.8415,-0.8415,-0.8416,0,-0.8602,-0.8593,-0.8579,-0.8561,-0.8548,-0.8549,-0.8535,-0.8523,-0.8506,-0.8492,-0.8477,-0.8455,-0.8436,-0.8424,-0.8404,-0.8393,-0.8391,-0.8388,-0.8387,-0.8385,-0.841,-0.8415,-0.8389,-0.8389,-0.8389,-0.8389,-0.839,-0.839,-0.8585,-0.8564,-0.856,-0.8534,-0.8525,-0.8506,-0.8498,-0.8486,-0.8475,-0.8451,-0.8436,-0.8428,-0.8414,-0.8394,-0.8377,-0.8373,-0.8365,-0.8362,-0.8358,-0.8381,-0.8383,-0.8386,-0.839,-0.836,-0.836,-0.8334,-0.8334,-0.8334]},{"header":{"parameterUnit":"m.s-1","parameterCategory":1,"la1":30.2991,"la2":30.254,"lo1":-89.0895,"lo2":-89.0444,"dy":0.0017,"dx":0.0017,"nx":28,"ny":28,"refTime":"2024-09-29T09:00:00:Z","depth":0,"parameterNumber":3,"parameterNumberName":"V-component_of_WINDS"},"data":[0,0,0,0,0,0,0,0,0,0,0,0,0,0,0,0,0,0,0,0,0,0,0,0,0,0,0,0,0,0,0,0,0,0,0,0,0,0,0,0,0,0,0,0,0,0,0,0,0,0,0,0,0,0,0,0,0,0,-1.1278,-1.1278,0,-1.1269,-1.1269,-1.1268,-1.1247,-1.1246,-1.1246,-1.1245,-1.1236,-1.1236,-1.1236,0,0,0,0,0,0,0,0,0,0,0,0,0,-1.1278,-1.1279,-1.1278,-1.1278,-1.1278,-1.1269,-1.1269,-1.1268,-1.1247,-1.1246,-1.1246,-1.1245,-1.1236,-1.1236,-1.1236,0,0,0,0,0,0,0,0,0,0,0,0,0,-1.1275,-1.1279,-1.1278,-1.1266,-1.1265,-1.1269,-1.1269,-1.1268,-1.1247,-1.1246,-1.1245,-1.1245,-1.1236,-1.1236,-1.1236,-1.1251,0,0,-1.1237,-1.1237,0,0,0,0,0,0,0,0,-1.1275,-1.1275,-1.1268,-1.1267,-1.1266,-1.1258,-1.1265,-1.1263,-1.1247,-1.1254,-1.1245,-1.1244,-1.1244,-1.1243,-1.1243,-1.1251,-1.1251,-1.1237,-1.1237,-1.1237,-1.1237,0,0,0,0,0,0,0,-1.1275,-1.1275,-1.1275,-1.1268,-1.1266,-1.1261,-1.126,-1.1265,-1.1253,-1.1253,-1.1251,-1.1251,-1.1243,-1.1243,-1.1243,-1.125,-1.1237,-1.1237,-1.1237,-1.1238,-1.1271,-1.1271,0,0,0,0,0,0,-1.1277,-1.1275,-1.1275,-1.1274,-1.1269,-1.1262,-1.126,-1.1261,-1.1253,-1.1251,-1.1251,-1.125,-1.1243,-1.1242,-1.1242,-1.126,-1.1237,-1.1238,-1.1238,-1.127,-1.1271,-1.1272,0,0,0,0,0,0,-1.1277,-1.1277,-1.1275,-1.1274,-1.1274,-1.1263,-1.1264,-1.1261,-1.1261,-1.1251,-1.1249,-1.1253,-1.1242,-1.1242,-1.1249,-1.1259,-1.1238,-1.1238,-1.1269,-1.127,-1.1271,-1.1295,0,0,0,0,0,0,-1.1277,-1.1277,-1.1283,-1.1275,-1.1274,-1.1282,-1.1264,-1.1262,-1.1262,-1.1259,-1.1252,-1.1251,-1.1242,-1.1249,-1.125,-1.1259,-1.1238,-1.1268,-1.127,-1.1271,-1.1293,-1.1296,-1.1299,0,0,0,0,0,-1.1277,-1.129,-1.1283,-1.1283,-1.128,-1.1283,-1.1282,-1.1272,-1.1263,-1.1268,-1.1262,-1.1251,-1.1258,-1.125,-1.125,-1.126,-1.1267,-1.1269,-1.1271,-1.1292,-1.1296,-1.1299,0,0,0,0,0,0,-1.13,-1.1289,-1.1281,-1.1291,-1.1288,-1.1279,-1.1286,-1.1277,-1.1276,-1.1274,-1.1261,-1.126,-1.1269,-1.1265,-1.1257,-1.1275,-1.1261,-1.1263,-1.1277,-1.1281,-1.1284,-1.1285,-1.1238,0,0,0,0,0,-1.1306,-1.1309,-1.1299,-1.1309,-1.1308,-1.1297,-1.1298,-1.129,-1.1286,-1.1285,-1.1279,-1.1276,-1.1277,-1.1279,-1.128,-1.1292,-1.1291,-1.1299,-1.1302,-1.1305,-1.1307,-1.1314,-1.1317,-1.1277,-1.1277,-1.1277,0,0,-1.1319,-1.1313,-1.1315,-1.1313,-1.131,-1.1313,-1.1296,-1.13,-1.1303,-1.1285,-1.1292,-1.1288,-1.1284,-1.1294,-1.1298,-1.1291,-1.1318,-1.1307,-1.1309,-1.131,-1.1316,-1.132,-1.1323,-1.1278,-1.1278,-1.1278,0,0,-1.1344,-1.1339,-1.1347,-1.1344,-1.134,-1.1332,-1.1334,-1.1327,-1.1323,-1.133,-1.1317,-1.132,-1.1323,-1.132,-1.1319,-1.1344,-1.1334,-1.1345,-1.1361,-1.1368,-1.1371,-1.1374,-1.1383,-1.1387,-1.1346,-1.1346,-1.1346,0,-1.136,-1.1364,-1.1353,-1.1358,-1.1357,-1.1342,-1.135,-1.1348,-1.1343,-1.1344,-1.1336,-1.1339,-1.1335,-1.1345,-1.1351,-1.1351,-1.1353,-1.1345,-1.1372,-1.1374,-1.1377,-1.1385,-1.1389,-1.1348,-1.1348,-1.1347,-1.1347,0,-1.1385,-1.1389,-1.1396,-1.1392,-1.1392,-1.1399,-1.1388,-1.139,-1.1382,-1.1376,-1.1383,-1.1378,-1.1378,-1.1379,-1.1372,-1.1388,-1.1384,-1.1374,-1.136,-1.1382,-1.139,-1.1393,-1.135,-1.1349,-1.1349,-1.1348,0,0,-1.1424,-1.1414,-1.1417,-1.1415,-1.1408,-1.1411,-1.1417,-1.1417,-1.1419,-1.1416,-1.1421,-1.1424,-1.1415,-1.1414,-1.1406,-1.1412,-1.1433,-1.1402,-1.1402,-1.1408,-1.1451,-1.1458,-1.1462,-1.1426,-1.1426,-1.1427,-1.1451,0,-1.1448,-1.1457,-1.1447,-1.1459,-1.1462,-1.1447,-1.1453,-1.145,-1.1444,-1.1446,-1.144,-1.1443,-1.143,-1.143,-1.1435,-1.1429,-1.1441,-1.1427,-1.1431,-1.1431,-1.1432,-1.1466,-1.1474,-1.1497,-1.1454,-1.1454,-1.1455,0,-1.1476,-1.1475,-1.1488,-1.1481,-1.1482,-1.1487,-1.1486,-1.1488,-1.1484,-1.148,-1.1479,-1.1469,-1.1475,-1.1462,-1.147,-1.146,-1.1461,-1.1459,-1.1459,-1.1459,-1.1444,-1.1467,-1.1504,-1.1508,-1.1459,-1.1459,-1.1459,0,-1.1504,-1.1506,-1.1513,-1.1512,-1.1504,-1.1508,-1.1505,-1.1501,-1.1501,-1.15,-1.1501,-1.1501,-1.1501,-1.1501,-1.1492,-1.1483,-1.1501,-1.1487,-1.1498,-1.1498,-1.1503,-1.1502,-1.154,-1.1503,-1.1503,-1.1503,-1.1503,0,-1.1531,-1.154,-1.1526,-1.153,-1.1539,-1.1527,-1.1537,-1.1532,-1.1528,-1.1532,-1.1519,-1.1523,-1.151,-1.1513,-1.1506,-1.1514,-1.1514,-1.1511,-1.1509,-1.1512,-1.1513,-1.1513,-1.1511,-1.1504,-1.1503,-1.1503,-1.1503,0,-1.1564,-1.1554,-1.1562,-1.1554,-1.1552,-1.1559,-1.1552,-1.1556,-1.155,-1.1555,-1.1556,-1.1546,-1.1548,-1.1539,-1.154,-1.1535,-1.1547,-1.1542,-1.1548,-1.1547,-1.1559,-1.1558,-1.1598,-1.1603,-1.1563,-1.1563,-1.1563,0,-1.1582,-1.1588,-1.1581,-1.1582,-1.158,-1.1582,-1.1583,-1.1572,-1.1573,-1.1569,-1.1574,-1.1575,-1.1576,-1.1581,-1.1574,-1.1574,-1.157,-1.1584,-1.157,-1.1573,-1.157,-1.157,-1.1571,-1.1587,-1.1587,-1.1588,-1.1588,0,-1.1616,-1.1611,-1.1612,-1.1612,-1.1612,-1.1612,-1.161,-1.1612,-1.16,-1.1602,-1.1604,-1.1605,-1.1606,-1.1607,-1.1607,-1.1604,-1.1594,-1.1593,-1.1595,-1.1599,-1.1602,-1.1601,-1.1557,-1.1592,-1.1591,-1.1591,-1.1591,-1.1591,-1.1642,-1.1646,-1.1642,-1.1644,-1.1641,-1.164,-1.1644,-1.1638,-1.164,-1.1639,-1.1633,-1.1637,-1.1633,-1.1631,-1.1629,-1.1632,-1.1626,-1.1629,-1.163,-1.1632,-1.1634,-1.1601,-1.1632,-1.1632,-1.1632,-1.1632,-1.1632,0,-1.1675,-1.1671,-1.1673,-1.1671,-1.1673,-1.1663,-1.1661,-1.1663,-1.1666,-1.1664,-1.1664,-1.1667,-1.1669,-1.1662,-1.1663,-1.1667,-1.1663,-1.1668,-1.1667,-1.1667,-1.1639,-1.1637,-1.1671,-1.1671,-1.1671,-1.1671,-1.1671,-1.1671,-1.1692,-1.17,-1.1695,-1.1701,-1.1697,-1.1701,-1.17,-1.1699,-1.1697,-1.1701,-1.1702,-1.1698,-1.1694,-1.1694,-1.1696,-1.1694,-1.1695,-1.1701,-1.1698,-1.1673,-1.1669,-1.1665,-1.1663,-1.1702,-1.1702,-1.1725,-1.1725,-1.1725]}]]